Weather Service Report


746 
ASUS44 KLZK 291605
RWRLZK

WEATHER ROUNDUP FOR ARKANSAS
NATIONAL WEATHER SERVICE LITTLE ROCK AR
1100 AM CDT WED JUN 29 2016

NOTE: "FAIR" INDICATES FEW OR NO CLOUDS BELOW 12,000 FEET WITH NO
SIGNIFICANT WEATHER AND/OR OBSTRUCTIONS TO VISIBILITY.

ARZ001-003-010-029-291700-
NORTHWEST ARKANSAS
  
CITY           SKY/WX    TMP DP  RH WIND       PRES   REMARKS
FAYETTEVILLE   SUNNY     83  67  58 SW6       30.11S HX  85           
FORT SMITH     SUNNY     88  62  41 VRB3      30.07S HX  88           
HARRISON       SUNNY     81  67  62 SE9       30.14S                  
BENTONVILLE    SUNNY     84  63  48 SW7       30.13R HX  85           
ROGERS         SUNNY     85  67  54 W8        30.12S HX  87           
SILOAM SPGS    SUNNY     86  63  45 SW7       30.13R HX  87           
HIGHFILL       SUNNY     86  67  52 W10       30.11R HX  89           
SPRINGDALE     MOSUNNY   81  66  61 SW5       30.13S                  
$$

ARZ004-005-016-291700-
NORTH CENTRAL ARKANSAS
  
CITY           SKY/WX    TMP DP  RH WIND       PRES   REMARKS
BATESVILLE     SUNNY     82  68  61 NE7       30.11S HX  85           
FLIPPIN        MOSUNNY   81  63  54 SE5       30.10S                  
MTN HOME       SUNNY     79  64  60 E7        30.12S                  
$$

ARZ040-041-291700-
WEST CENTRAL ARKANSAS
  
CITY           SKY/WX    TMP DP  RH WIND       PRES   REMARKS
MENA           SUNNY     88  70  55 E3        30.10F HX  92           
MOUNT IDA      SUNNY     87  69  54 MISG      30.07F HX  91           
$$

ARZ009-017-025-026-028-291700-
NORTHEAST ARKANSAS
  
CITY           SKY/WX    TMP DP  RH WIND       PRES   REMARKS
CORNING          N/A     81  66  61 E7        30.12S                  
JONESBORO      SUNNY     82  65  56 E10       30.09F                  
NEWPORT        SUNNY     82  69  64 NE7       30.11S HX  85           
WALNUT RIDGE   SUNNY     79  66  65 NE6       30.10S                  
BLYTHEVILLE    SUNNY     83  66  56 NE8       30.10R HX  85           
$$

ARZ022-023-033-042-044-291700-
CENTRAL ARKANSAS
  
CITY           SKY/WX    TMP DP  RH WIND       PRES   REMARKS
LITTLE ROCK    MOSUNNY   88  68  51 E6        30.08R HX  91           
N LITTLE ROCK    N/A     88  69  54 E7        30.05S HX  92           
JACKSONVILLE   SUNNY     86  68  53 E9        30.07S HX  89           
SEARCY         SUNNY     84  72  65 E10       30.10S HX  89           
HOT SPRINGS    SUNNY     86  66  51 SE6       30.08S HX  88           
RUSSELLVILLE   SUNNY     84  68  58 S3        30.08R HX  87           
$$

ARZ036-291700-
EAST ARKANSAS
  
CITY           SKY/WX    TMP DP  RH WIND       PRES   REMARKS
WEST MEMPHIS   SUNNY     84  66  54 NE10      30.07R HX  86           
$$

ARZ050-053-066-070-073-291700-
SOUTHWEST ARKANSAS
  
CITY           SKY/WX    TMP DP  RH WIND       PRES   REMARKS
ARKADELPHIA    FAIR      87  67  51 NE5       30.07S HX  90           
CAMDEN         SUNNY     90  64  43 E5        30.05S HX  91           
TEXARKANA      SUNNY     86  71  60 NE7       30.06S HX  91           
EL DORADO      SUNNY     85  71  63 VRB7      30.05S HX  90           
DE QUEEN       SUNNY     88  72  58 E6        30.05S HX  94           
$$

ARZ056-057-069-291700-
SOUTHEAST ARKANSAS
  
CITY           SKY/WX    TMP DP  RH WIND       PRES   REMARKS
PINE BLUFF     SUNNY     85  70  60 VRB3      30.06S HX  89           
STUTTGART      SUNNY     86  70  58 N10       30.08R HX  90           
MONTICELLO     SUNNY     87  70  56 NE7       30.05R HX  92           

$$


  

Return to Home page


Western Regional Climate Center, wrcc@dri.edu